Location: Complexul Astronomic Baia Mare
(47.6577°N, 23.5639°E)
Time: 04:22:48
(UTC+03:00)

ISS - Pass Details

Date: 31 March 2017
Orbit: 400 x 409 km, 51.6° (Epoch: 24 April)

Event Time Altitude Azimuth Distance (km) Brightness Sun altitude
Rises 22:31:29 0° 274° (W) 2,319 0.8 -24.9°
Reaches altitude 10° 22:33:38 10° 282° (WNW) 1,462 -0.2 -25.2°
Enters shadow 22:35:36 29° 306° (NW) 783 -1.8 -25.4°
